H1 CPF 2 NER 2021 3 15 9 074 01 glonass127 H2 1106403 9127 37869 2021 3 15 0 0 0 2021 3 18 23 45 0 900 1 1 0 0 0 1 H9 10 0 59288 0.00000 0 12257645.425 -16933841.986 -14574685.873 10 0 59288 900.00000 0 13508227.395 -18010394.534 -11955174.263 10 0 59288 1800.00000 0 14420776.642 -18955567.371 -9102946.144 10 0 59288 2700.00000 0 15002736.952 -19711351.841 -6073659.578 10 0 59288 3600.00000 0 15273916.295 -20224442.437 -2926330.109 10 0 59288 4500.00000 0 15265395.333 -20448583.985 277830.071 10 0 59288 5400.00000 0 15017975.669 -20346633.590 3476608.599 10 0 59288 6300.00000 0 14580236.137 -19892251.364 6608001.123 10 0 59288 7200.00000 0 14006281.500 -19071150.295 9611407.407 10 0 59288 8100.00000 0 13353279.954 -17881854.487 12428792.608 10 0 59288 9000.00000 0 12678893.816 -16335935.727 15005792.239 10 0 59288 9900.00000 0 12038711.190 -14457720.103 17292740.848 10 0 59288 10800.00000 0 11483785.514 -12283478.027 19245606.620 10 0 59288 11700.00000 0 11058384.594 -9860131.866 20826816.078 10 0 59288 12600.00000 0 10798041.506 -7243534.749 22005955.341 10 0 59288 13500.00000 0 10727986.941 -4496390.851 22760336.727 10 0 59288 14400.00000 0 10862026.820 -1685901.503 23075421.769 10 0 59288 15300.00000 0 11201910.830 1118767.824 22945093.955 10 0 59288 16200.00000 0 11737217.762 3849097.797 22371776.816 10 0 59288 17100.00000 0 12445762.778 6439797.846 21366395.194 10 0 59288 18000.00000 0 13294510.704 8831257.139 19948179.791 10 0 59288 18900.00000 0 14240959.086 10971764.937 18144317.449 10 0 59288 19800.00000 0 15234935.506 12819410.231 15989451.917 10 0 59288 20700.00000 0 16220736.516 14343582.777 13525042.441 10 0 59288 21600.00000 0 17139521.023 15526013.436 10798589.951 10 0 59288 22500.00000 0 17931859.725 16361309.930 7862743.257 10 0 59288 23400.00000 0 18540334.846 16856964.440 4774300.288 10 0 59288 24300.00000 0 18912081.213 17032831.171 1593121.876 10 0 59288 25200.00000 0 19001161.106 16920094.098 -1619022.160 10 0 59288 26100.00000 0 18770671.192 16559766.657 -4799652.662 10 0 59288 27000.00000 0 18194490.284 16000785.391 -7886803.108 10 0 59288 27900.00000 0 17258591.072 15297777.331 -10820239.306 10 0 59288 28800.00000 0 15961857.091 14508595.475 -13542651.591 10 0 59288 29700.00000 0 14316366.983 13691727.346 -16000794.501 10 0 59288 30600.00000 0 12347130.833 12903687.671 -18146549.669 10 0 59288 31500.00000 0 10091287.033 12196507.449 -19937888.979 10 0 59288 32400.00000 0 7596791.447 11615427.871 -21339717.201 10 0 59288 33300.00000 0 4920652.729 11196898.909 -22324575.889 10 0 59288 34200.00000 0 2126787.541 10966969.278 -22873193.315 10 0 59288 35100.00000 0 -716414.204 10940137.486 -22974868.752 10 0 59288 36000.00000 0 -3538711.280 11118713.543 -22627683.055 10 0 59288 36900.00000 0 -6270709.434 11492718.643 -21838531.389 10 0 59288 37800.00000 0 -8846522.077 12040326.663 -20622977.848 10 0 59288 38700.00000 0 -11206281.312 12728827.745 -19004935.642 10 0 59288 39600.00000 0 -13298393.835 13516071.635 -17016180.251 10 0 59288 40500.00000 0 -15081447.684 14352327.775 -14695706.567 10 0 59288 41400.00000 0 -16525691.111 15182481.369 -12088944.180 10 0 59288 42300.00000 0 -17614023.400 15948470.479 -9246848.050 10 0 59288 43200.00000 0 -18342458.738 16591859.297 -6224884.079 10 0 59288 44100.00000 0 -18720046.824 17056437.456 -3081931.117 10 0 59288 45000.00000 0 -18768257.003 17290734.759 120877.602 10 0 59288 45900.00000 0 -18519855.411 17250345.034 3321349.853 10 0 59288 46800.00000 0 -18017325.679 16899961.563 6457442.654 10 0 59288 47700.00000 0 -17310902.447 16215039.400 9468459.571 10 0 59288 48600.00000 0 -16456302.490 15183016.116 12296214.234 10 0 59288 49500.00000 0 -15512250.042 13804041.279 14886138.524 10 0 59288 50400.00000 0 -14537900.530 12091185.693 17188315.409 10 0 59288 51300.00000 0 -13590270.181 10070122.855 19158418.452 10 0 59288 52200.00000 0 -12721777.855 7778296.543 20758542.168 10 0 59288 53100.00000 0 -11978000.085 5263609.240 21957909.505 10 0 59288 54000.00000 0 -11395731.034 2582685.022 22733445.179 10 0 59288 54900.00000 0 -11001426.259 -201222.677 23070205.801 10 0 59288 55800.00000 0 -10810093.496 -3020593.982 22961660.020 10 0 59288 56700.00000 0 -10824675.518 -5806181.219 22409814.170 10 0 59288 57600.00000 0 -11035950.366 -8489621.356 21425181.175 10 0 59288 58500.00000 0 -11422953.499 -11006017.153 20026592.687 10 0 59288 59400.00000 0 -11953905.359 -13296382.921 18240856.795 10 0 59288 60300.00000 0 -12587607.382 -15309855.800 16102265.951 10 0 59288 61200.00000 0 -13275250.224 -17005582.133 13651962.320 10 0 59288 62100.00000 0 -13962560.719 -18354201.187 10937170.221 10 0 59288 63000.00000 0 -14592199.558 -19338864.177 8010307.907 10 0 59288 63900.00000 0 -15106310.528 -19955744.992 4927993.631 10 0 59288 64800.00000 0 -15449114.792 -20214019.777 1749963.341 10 0 59288 65700.00000 0 -15569440.814 -20135314.304 -1462080.345 10 0 59288 66600.00000 0 -15423082.113 -19752640.484 -4645666.006 10 0 59288 67500.00000 0 -14974881.295 -19108865.102 -7738774.798 10 0 59288 68400.00000 0 -14200449.565 -18254774.174 -10681060.785 10 0 59288 69300.00000 0 -13087445.799 -17246814.073 -13415045.017 10 0 59288 70200.00000 0 -11636357.630 -16144605.028 -15887258.312 10 0 59288 71100.00000 0 -9860748.087 -15008332.970 -18049308.432 10 0 59288 72000.00000 0 -7786954.310 -13896131.450 -19858848.619 10 0 59288 72900.00000 0 -5453248.494 -12861566.186 -21280426.598 10 0 59288 73800.00000 0 -2908494.523 -11951330.554 -22286195.694 10 0 59288 74700.00000 0 -210355.804 -11203251.397 -22856472.660 10 0 59288 75600.00000 0 2576870.764 -10644690.971 -22980130.377 10 0 59288 76500.00000 0 5384703.516 -10291413.586 -22654817.165 10 0 59288 77400.00000 0 8143103.956 -10146965.238 -21886998.331 10 0 59288 78300.00000 0 10783172.872 -10202592.060 -20691819.530 10 0 59288 79200.00000 0 13239800.853 -10437699.975 -19092795.372 10 0 59288 80100.00000 0 15454161.481 -10820834.437 -17121330.526 10 0 59288 81000.00000 0 17375942.752 -11311136.680 -14816084.145 10 0 59288 81900.00000 0 18965223.769 -11860212.445 -12222191.658 10 0 59288 82800.00000 0 20193919.299 -12414331.687 -9390361.007 10 0 59288 83700.00000 0 21046733.670 -12916863.899 -6375862.797 10 0 59288 84600.00000 0 21521586.669 -13310844.133 -3237435.789 10 0 59288 85500.00000 0 21629496.684 -13541559.860 -36130.701 10 0 59289 0.00000 0 21393929.445 -13559048.693 3165883.908 10 0 59289 900.00000 0 20849642.982 -13320401.093 6306530.072 10 0 59289 1800.00000 0 20041080.591 -12791772.712 9325018.411 10 0 59289 2700.00000 0 19020381.430 -11950020.759 12163014.028 10 0 59289 3600.00000 0 17845094.196 -10783899.107 14765747.820 10 0 59289 4500.00000 0 16575690.373 -9294762.043 17083053.388 10 0 59289 5400.00000 0 15272981.111 -7496749.158 19070311.473 10 0 59289 6300.00000 0 13995544.764 -5416444.250 20689285.938 10 0 59289 7200.00000 0 12797270.911 -3092022.839 21908837.512 10 0 59289 8100.00000 0 11725121.206 -571923.160 22705503.853 10 0 59289 9000.00000 0 10817198.122 2086905.491 23063936.824 10 0 59289 9900.00000 0 10101199.895 4821106.416 22977190.029 10 0 59289 10800.00000 0 9593324.261 7563286.756 22446852.063 10 0 59289 11700.00000 0 9297665.499 10244561.176 21483023.068 10 0 59289 12600.00000 0 9206129.557 12797165.753 20104134.488 10 0 59289 13500.00000 0 9298871.178 15157036.858 18336614.236 10 0 59289 14400.00000 0 9545235.937 17266250.573 16214401.813 10 0 59289 15300.00000 0 9905169.486 19075223.197 13778320.439 10 0 59289 16200.00000 0 10331036.986 20544582.308 11075315.760 10 0 59289 17100.00000 0 10769778.385 21646630.571 8157573.244 10 0 59289 18000.00000 0 11165310.701 22366340.321 5081529.077 10 0 59289 18900.00000 0 11461077.292 22701835.936 1906791.800 10 0 59289 19800.00000 0 11602636.989 22664341.808 -1305005.766 10 0 59289 20700.00000 0 11540183.231 22277595.945 -4491402.551 10 0 59289 21600.00000 0 11230885.270 21576751.865 -7590329.950 10 0 59289 22500.00000 0 10640950.091 20606813.300 -10541332.722 10 0 59289 23400.00000 0 9747314.885 19420666.636 -13286764.894 10 0 59289 24300.00000 0 8538895.071 18076793.656 -15772935.621 10 0 59289 25200.00000 0 7017331.595 16636761.465 -17951180.625 10 0 59289 26100.00000 0 5197202.583 15162596.540 -19778836.126 10 0 59289 27000.00000 0 3105687.515 13714155.279 -21220094.213 10 0 59289 27900.00000 0 781695.713 12346603.762 -22246721.176 10 0 59289 28800.00000 0 -1725505.658 11108114.967 -22838623.239 10 0 59289 29700.00000 0 -4358107.175 10037882.147 -22984247.623 10 0 59289 30600.00000 0 -7051940.212 9164533.309 -22680810.537 10 0 59289 31500.00000 0 -9738935.249 8505014.219 -21934347.497 10 0 59289 32400.00000 0 -12349751.529 8063986.794 -20759585.380 10 0 59289 33300.00000 0 -14816466.878 7833767.269 -19179639.439 10 0 59289 34200.00000 0 -17075213.984 7794805.078 -17225542.385 10 0 59289 35100.00000 0 -19068652.186 7916679.909 -14935616.141 10 0 59289 36000.00000 0 -20748171.186 8159572.145 -12354700.212 10 0 59289 36900.00000 0 -22075734.884 8476141.692 -9533253.586 10 0 59289 37800.00000 0 -23025289.460 8813732.981 -6526349.523 10 0 59289 38700.00000 0 -23583678.695 9116810.411 -3392584.580 10 0 59289 39600.00000 0 -23751030.777 9329519.281 -192924.804 10 0 59289 40500.00000 0 -23540603.417 9398262.628 3010487.240 10 0 59289 41400.00000 0 -22978097.013 9274184.501 6155540.595 10 0 59289 42300.00000 0 -22100467.727 8915454.967 9181355.348 10 0 59289 43200.00000 0 -20954292.975 8289261.273 12029450.447 10 0 59289 44100.00000 0 -19593759.828 7373422.506 14644858.186 10 0 59289 45000.00000 0 -18078361.775 6157561.372 16977165.166 10 0 59289 45900.00000 0 -16470400.472 4643785.299 18981461.595 10 0 59289 46800.00000 0 -14832396.188 2846849.445 20619182.841 10 0 59289 47700.00000 0 -13224513.584 793795.348 21858829.355 10 0 59289 48600.00000 0 -11702108.075 -1476919.860 22676553.434 10 0 59289 49500.00000 0 -10313492.503 -3916768.486 23056603.582 10 0 59289 50400.00000 0 -9098014.652 -6468917.357 22991619.440 10 0 59289 51300.00000 0 -8084523.309 -9070342.171 22482772.607 10 0 59289 52200.00000 0 -7290284.949 -11654206.469 21539750.834 10 0 59289 53100.00000 0 -6720395.097 -14152409.652 20180585.394 10 0 59289 54000.00000 0 -6367708.567 -16498201.603 18431323.703 10 0 59289 54900.00000 0 -6213291.990 -18628758.211 16325551.616 10 0 59289 55800.00000 0 -6227380.872 -20487612.874 13903772.366 10 0 59289 56700.00000 0 -6370802.751 -22026844.275 11212651.540 10 0 59289 57600.00000 0 -6596808.610 -23208929.651 8304140.117 10 0 59289 58500.00000 0 -6853237.342 -24008185.694 5234490.235 10 0 59289 59400.00000 0 -7084923.529 -24411735.503 2063180.796 10 0 59289 60300.00000 0 -7236247.727 -24419959.151 -1148227.650 10 0 59289 61200.00000 0 -7253721.513 -24046406.593 -4337287.078 10 0 59289 62100.00000 0 -7088497.033 -23317174.253 -7441882.025 10 0 59289 63000.00000 0 -6698693.005 -22269769.332 -10401451.036 10 0 59289 63900.00000 0 -6051436.186 -20951508.004 -13158184.344 10 0 59289 64800.00000 0 -5124528.717 -19417514.008 -15658172.723 10 0 59289 65700.00000 0 -3907667.375 -17728401.676 -17852483.108 10 0 59289 66600.00000 0 -2403159.783 -15947741.599 -19698137.771 10 0 59289 67500.00000 0 -626104.140 -14139416.762 -21158975.962 10 0 59289 68400.00000 0 1395977.743 -12364982.077 -22206379.340 10 0 59289 69300.00000 0 3624040.613 -10681140.238 -22819845.513 10 0 59289 70200.00000 0 6008912.433 -9137441.771 -22987397.439 10 0 59289 71100.00000 0 8493129.321 -7774307.365 -22705820.067 10 0 59289 72000.00000 0 11013131.399 -6621456.471 -21980719.450 10 0 59289 72900.00000 0 13501726.641 -5696808.314 -20826403.512 10 0 59289 73800.00000 0 15890718.394 -5005900.766 -19265587.494 10 0 59289 74700.00000 0 18113585.149 -4541850.054 -17328931.007 10 0 59289 75600.00000 0 20108099.333 -4285850.684 -15054417.141 10 0 59289 76500.00000 0 21818774.769 -4208191.715 -12486587.399 10 0 59289 77400.00000 0 23199040.154 -4269743.362 -9675649.266 10 0 59289 78300.00000 0 24213048.125 -4423847.988 -6676475.686 10 0 59289 79200.00000 0 24837045.468 -4618532.542 -3547517.697 10 0 59289 80100.00000 0 25060249.014 -4798946.446 -349653.112 10 0 59289 81000.00000 0 24885193.111 -4909919.876 2855005.104 10 0 59289 81900.00000 0 24327536.989 -4898533.186 6004316.776 10 0 59289 82800.00000 0 23415343.053 -4716588.551 9037314.899 10 0 59289 83700.00000 0 22187859.065 -4322879.871 11895375.483 10 0 59289 84600.00000 0 20693857.436 -3685166.193 14523335.110 10 0 59289 85500.00000 0 18989602.618 -2781766.986 16870535.878 10 0 59290 0.00000 0 17136532.170 -1602713.743 18891779.512 10 0 59290 900.00000 0 15198747.938 -150410.485 20548174.635 10 0 59290 1800.00000 0 13240420.758 1560222.290 21807862.668 10 0 59290 2700.00000 0 11323215.167 3502127.977 22646611.423 10 0 59290 3600.00000 0 9503838.175 5637001.274 23048266.539 10 0 59290 4500.00000 0 7831812.009 7916648.228 23005053.793 10 0 59290 5400.00000 0 6347560.440 10284763.955 22517727.487 10 0 59290 6300.00000 0 5080886.044 12679057.135 21595562.298 10 0 59290 7200.00000 0 4049900.082 15033636.017 20256188.260 10 0 59290 8100.00000 0 3260448.534 17281560.123 18525270.875 10 0 59290 9000.00000 0 2706058.056 19357454.618 16436040.622 10 0 59290 9900.00000 0 2368404.740 21200081.043 14028678.732 10 0 59290 10800.00000 0 2218287.221 22754759.149 11349568.483 10 0 59290 11700.00000 0 2217064.963 23975539.644 8450423.910 10 0 59290 12600.00000 0 2318503.028 24827036.934 5387310.476 10 0 59290 13500.00000 0 2470947.180 25285844.100 2219574.676 10 0 59290 14400.00000 0 2619738.708 25341469.001 -991298.048 10 0 59290 15300.00000 0 2709767.365 24996749.780 -4182875.581 10 0 59290 16200.00000 0 2688054.035 24267729.741 -7292998.397 10 0 59290 17100.00000 0 2506252.506 23182994.248 -10261001.494 10 0 59290 18000.00000 0 2122962.327 21782495.364 -13028913.783 10 0 59290 18900.00000 0 1505752.028 20115912.076 -15542609.893 10 0 59290 19800.00000 0 632803.831 18240614.210 -17752889.944 10 0 59290 20700.00000 0 -505893.057 16219315.659 -19616463.975 10 0 59290 21600.00000 0 -1907854.273 14117516.244 -21096819.840 10 0 59290 22500.00000 0 -3557949.185 12000840.944 -22164955.747 10 0 59290 23400.00000 0 -5428795.425 9932389.914 -22799961.583 10 0 59290 24300.00000 0 -7481684.035 7970212.222 -22989436.614 10 0 59290 25200.00000 0 -9667997.053 6165010.791 -22729734.743 10 0 59290 26100.00000 0 -11931057.934 4558175.971 -22026032.363 10 0 59290 27000.00000 0 -14208336.470 3180230.600 -20892217.793 10 0 59290 27900.00000 0 -16433914.636 2049751.402 -19350605.168 10 0 59290 28800.00000 0 -18541108.508 1172810.809 -17431479.495 10 0 59290 29700.00000 0 -20465135.010 542960.574 -15172483.156 10 0 59290 30600.00000 0 -22145710.620 141755.102 -12617857.514 10 0 59290 31500.00000 0 -23529472.340 -60210.712 -9817556.244 10 0 59290 32400.00000 0 -24572119.462 -101796.381 -6826249.566 10 0 59290 33300.00000 0 -25240186.970 -29410.372 -3702240.556 10 0 59290 34200.00000 0 -25512377.551 105212.208 -506316.354 10 0 59290 35100.00000 0 -25380398.393 247452.355 2699442.110 10 0 59290 36000.00000 0 -24849270.134 342365.339 5852867.857 10 0 59290 36900.00000 0 -23937097.692 337245.325 8892909.183 10 0 59290 37800.00000 0 -22674315.209 184088.030 11760801.523 10 0 59290 38700.00000 0 -21102438.992 -158151.839 14401188.020 10 0 59290 39600.00000 0 -19272382.324 -721602.264 16763168.440 10 0 59290 40500.00000 0 -17242403.424 -1527895.578 18801258.085 10 0 59290 41400.00000 0 -15075772.154 -2587034.915 20476240.436 10 0 59290 42300.00000 0 -12838251.824 -3896751.623 21755899.412 10 0 59290 43200.00000 0 -10595499.137 -5442379.839 22615619.495 10 0 59290 44100.00000 0 -8410487.978 -7197253.433 23038844.268 10 0 59290 45000.00000 0 -6341061.357 -9123609.524 23017386.128 10 0 59290 45900.00000 0 -4437710.291 -11173962.589 22551582.252 10 0 59290 46800.00000 0 -2741669.134 -13292894.315 21650294.121 10 0 59290 47700.00000 0 -1283404.375 -15419187.592 20330750.146 10 0 59290 48600.00000 0 -81558.147 -17488219.013 18618233.257 10 0 59290 49500.00000 0 857610.369 -19434513.435 16545617.650 10 0 59290 50400.00000 0 1540262.224 -21194356.897 14152761.384 10 0 59290 51300.00000 0 1984492.438 -22708361.059 11485764.004 10 0 59290 52200.00000 0 2219339.257 -23923873.363 8596100.931 10 0 59290 53100.00000 0 2283328.905 -24797132.356 5539649.057 10 0 59290 54000.00000 0 2222615.487 -25295077.233 2375620.386 10 0 59290 54900.00000 0 2088793.107 -25396734.069 -834577.027 10 0 59290 55800.00000 0 1936471.773 -25094118.216 -4028529.391 10 0 59290 56700.00000 0 1820719.534 -24392612.145 -7144035.709 10 0 59290 57600.00000 0 1794479.854 -23310799.978 -10120330.141 10 0 59290 58500.00000 0 1906075.175 -21879762.941 -12899283.088 10 0 59290 59400.00000 0 2196904.720 -20141863.186 -15426555.900 10 0 59290 60300.00000 0 2699436.915 -18149065.537 -17652684.708 10 0 59290 61200.00000 0 3435584.524 -15960867.015 -19534070.023 10 0 59290 62100.00000 0 4415534.434 -13641921.162 -21033850.774 10 0 59290 63000.00000 0 5637084.467 -11259457.621 -22122643.855 10 0 59290 63900.00000 0 7085517.635 -8880606.562 -22779133.170 10 0 59290 64800.00000 0 8734020.970 -6569741.639 -22990495.572 10 0 59290 65700.00000 0 10544632.305 -4385954.315 -22752654.728 10 0 59290 66600.00000 0 12469675.411 -2380766.688 -22070357.705 10 0 59290 67500.00000 0 14453622.697 -596179.278 -20957073.112 10 0 59290 68400.00000 0 16435306.196 936864.448 -19434713.425 10 0 59290 69300.00000 0 18350382.528 2199533.254 -17533188.054 10 0 59290 70200.00000 0 20133946.796 3185640.472 -15289797.262 10 0 59290 71100.00000 0 21723184.248 3901633.672 -12748480.414 10 0 59290 72000.00000 0 23059947.206 4366045.154 -9958935.084 10 0 59290 72900.00000 0 24093148.489 4608429.936 -6975626.088 10 0 59290 73800.00000 0 24780870.924 4667839.644 -3856705.523 10 0 59290 74700.00000 0 25092105.070 4590900.088 -662866.594 10 0 59290 75600.00000 0 25008043.707 4429576.724 2543845.186 10 0 59290 76500.00000 0 24522880.692 4238724.692 5701239.426 10 0 59290 77400.00000 0 23644083.017 4073528.403 8748183.001 10 0 59290 78300.00000 0 22392127.094 3986939.414 11625773.848 10 0 59290 79200.00000 0 20799712.506 4027220.452 14278464.487 10 0 59290 80100.00000 0 18910487.925 4235698.159 16655114.844 10 0 59290 81000.00000 0 16777343.510 4644817.728 18709955.926 10 0 59290 81900.00000 0 14460341.227 5276579.510 20403447.975 10 0 59290 82800.00000 0 12024368.742 6141421.614 21703018.863 10 0 59290 83700.00000 0 9536612.938 7237594.064 22583670.878 10 0 59290 84600.00000 0 7063955.766 8551050.091 23028446.329 10 0 59290 85500.00000 0 4670397.871 10055859.226 23028744.624 10 0 59291 0.00000 0 2414613.842 11715125.910 22584485.822 10 0 59291 900.00000 0 347737.619 13482377.428 21704117.719 10 0 59291 1800.00000 0 -1488532.955 15303365.069 20404466.244 10 0 59291 2700.00000 0 -3063434.864 17118207.357 18710430.446 10 0 59291 3600.00000 0 -4358182.231 18863788.298 16654526.553 10 0 59291 4500.00000 0 -5366508.115 20476313.830 14276287.432 10 0 59291 5400.00000 0 -6094683.514 21893922.015 11621526.606 10 0 59291 6300.00000 0 -6561011.648 23059239.556 8741478.375 10 0 59291 7200.00000 0 -6794817.326 23921778.258 5691828.385 10 0 59291 8100.00000 0 -6834972.297 24440070.679 2531651.350 10 0 59291 9000.00000 0 -6728017.205 24583454.058 -677724.932 10 0 59291 9900.00000 0 -6525958.230 24333425.359 -3873907.910 10 0 59291 10800.00000 0 -6283831.031 23684507.737 -6994657.980 10 0 59291 11700.00000 0 -6057135.271 22644588.843 -9979111.241 10 0 59291 12600.00000 0 -5899249.371 21234713.686 -12768982.192 10 0 59291 13500.00000 0 -5858936.808 19488337.973 -15309721.299 10 0 59291 14400.00000 0 -5978051.975 17450071.139 -17551602.846 10 0 59291 15300.00000 0 -6289545.592 15173960.445 -19450719.679 10 0 59291 16200.00000 0 -6815857.044 12721387.593 -20969863.368 10 0 59291 17100.00000 0 -7567764.532 10158666.207 -22079270.762 10 0 59291 18000.00000 0 -8543744.075 7554441.811 -22757220.721 10 0 59291 18900.00000 0 -9729866.389 4977004.432 -22990468.280 10 0 59291 19800.00000 0 -11100237.224 2491627.744 -22774507.064 10 0 59291 20700.00000 0 -12617963.012 158047.563 -22113654.583 10 0 59291 21600.00000 0 -14236600.910 -1971813.945 -21020959.031 10 0 59291 22500.00000 0 -15902031.294 -3855782.701 -19517930.064 10 0 59291 23400.00000 0 -17554672.453 -5462945.180 -17634099.889 10 0 59291 24300.00000 0 -19131942.699 -6774676.833 -15406424.659 10 0 59291 25200.00000 0 -20570864.627 -7785145.438 -12878539.450 10 0 59291 26100.00000 0 -21810700.471 -8501271.035 -10099883.235 10 0 59291 27000.00000 0 -22795506.651 -8942147.522 -7124712.801 10 0 59291 27900.00000 0 -23476499.594 -9137953.970 -4011026.583 10 0 59291 28800.00000 0 -23814133.485 -9128405.113 -819421.161 10 0 59291 29700.00000 0 -23779803.473 -8960809.813 2388096.040 10 0 59291 30600.00000 0 -23357104.236 -8687822.233 5549313.855 10 0 59291 31500.00000 0 -22542592.955 -8364982.648 8603020.320 10 0 59291 32400.00000 0 -21346026.860 -8048152.913 11490178.364 10 0 59291 33300.00000 0 -19790067.455 -7790954.952 14155052.244 10 0 59291 34200.00000 0 -17909465.654 -7642319.650 16546264.225 10 0 59291 35100.00000 0 -15749763.075 -7644248.071 18617762.951 10 0 59291 36000.00000 0 -13365564.159 -7829877.410 20329687.055 10 0 59291 36900.00000 0 -10818450.752 -8221931.053 21649109.640 10 0 59291 37800.00000 0 -8174624.602 -8831616.020 22550651.712 10 0 59291 38700.00000 0 -5502373.625 -9658012.782 23016954.843 10 0 59291 39600.00000 0 -2869464.486 -10687982.361 23039005.635 10 0 59291 40500.00000 0 -340566.531 -11896594.910 22616306.850 10 0 59291 41400.00000 0 2025189.279 -13248063.012 21756892.262 10 0 59291 42300.00000 0 4176418.042 -14697142.633 20477184.595 10 0 59291 43200.00000 0 6071366.093 -16190945.781 18801698.136 10 0 59291 44100.00000 0 7679397.136 -17671092.077 16762590.011 10 0 59291 45000.00000 0 8982018.399 -19076112.182 14399066.536 10 0 59291 45900.00000 0 9973404.208 -20344005.158 11756653.597 10 0 59291 46800.00000 0 10660394.503 -21414844.729 8886342.516 10 0 59291 47700.00000 0 11061967.128 -22233326.253 5843625.591 10 0 59291 48600.00000 0 11208204.532 -22751147.722 2687437.938 10 0 59291 49500.00000 0 11138796.734 -22929123.836 -520975.375 10 0 59291 50400.00000 0 10901142.248 -22738942.406 -3719245.634 10 0 59291 51300.00000 0 10548126.192 -22164486.559 -6845097.285 10 0 59291 52200.00000 0 10135669.284 -21202663.930 -9837571.063 10 0 59291 53100.00000 0 9720151.870 -19863704.626 -12638228.251 10 0 59291 54000.00000 0 9355823.321 -18170912.218 -15192311.059 10 0 59291 54900.00000 0 9092308.457 -16159875.429 -17449834.440 10 0 59291 55800.00000 0 8972318.954 -13877171.589 -19366585.910 10 0 59291 56700.00000 0 9029669.358 -11378614.963 -20905011.768 10 0 59291 57600.00000 0 9287684.301 -8727122.912 -22034970.567 10 0 59291 58500.00000 0 9758066.718 -5990289.655 -22734337.483 10 0 59291 59400.00000 0 10440276.840 -3237770.079 -22989446.659 10 0 59291 60300.00000 0 11321449.524 -538584.238 -22795362.154 10 0 59291 61200.00000 0 12376853.983 2041543.288 -22155971.961 10 0 59291 62100.00000 0 13570876.348 4442696.842 -21083903.479 10 0 59291 63000.00000 0 14858482.840 6613030.163 -19600262.759 10 0 59291 63900.00000 0 16187100.428 8510679.188 -17734203.645 10 0 59291 64800.00000 0 17498833.966 10105247.936 -15522336.647 10 0 59291 65700.00000 0 18732924.500 11378806.800 -13007990.660 10 0 59291 66600.00000 0 19828343.292 12326363.728 -10240343.818 10 0 59291 67500.00000 0 20726410.775 12955791.606 -7273442.313 10 0 59291 68400.00000 0 21373329.126 13287218.431 -4165128.094 10 0 59291 69300.00000 0 21722521.346 13351909.609 -975898.097 10 0 59291 70200.00000 0 21736678.724 13190693.093 2232281.459 10 0 59291 71100.00000 0 21389431.448 12851996.939 5397181.737 10 0 59291 72000.00000 0 20666573.612 12389584.570 8457514.943 10 0 59291 72900.00000 0 19566793.019 11860084.919 11354111.823 10 0 59291 73800.00000 0 18101877.031 11320422.368 14031050.971 10 0 59291 74700.00000 0 16296387.679 10825254.519 16436719.309 10 0 59291 75600.00000 0 14186820.882 10424524.667 18524785.169 10 0 59291 76500.00000 0 11820285.551 10161230.244 20255067.330 10 0 59291 77400.00000 0 9252757.541 10069498.924 21594285.594 10 0 59291 78300.00000 0 6546980.073 10173051.092 22516680.842 10 0 59291 79200.00000 0 3770096.000 10484111.258 23004494.733 10 0 59291 80100.00000 0 991107.706 11002812.774 23048301.524 10 0 59291 81000.00000 0 -1721733.052 11717120.220 22647186.750 10 0 59291 81900.00000 0 -4303500.497 12603273.084 21808769.746 10 0 59291 82800.00000 0 -6695031.626 13626733.377 20549069.211 10 0 59291 83700.00000 0 -8845126.260 14743599.540 18892213.378 10 0 59291 84600.00000 0 -10712421.193 15902430.025 16869998.563 10 0 59291 85500.00000 0 -12266861.823 17046402.955 14521302.465 99